Home   Weather   Amravati   Past weeks

Flag for India Past Weather in Amravati, Maharashtra, India — Yesterday and Last 2 Weeks

Now
64 °F

Haze.


Feels Like: 64 °F
Forecast: 63 / 88 °F
Wind: 2 mph from Northwest

Location: Nagpur Sonegaon

Current Time: Jan 22, 2017 at 3:35:57 am

Latest Report: Jan 22, 2017 at 3:00 am


Visibility: 2 mi

Pressure: 30.09 "Hg

Humidity: 64%

Dew Point: 52 °F

Location of AmravatiLocation

Past Weather in Amravati — Graph

°F

Amravati Temperature Yesterday

Maximum temperature yesterday: 88 °F (at 2:30 pm)
Minimum temperature yesterday: 59 °F (at 7:00 am)
Average temperature yesterday: 74 °F

High & Low Weather Summary for the Past Weeks

 TemperatureHumidityPressure
High88 °F (Jan 7, 2:30 pm)100% (Jan 9, 6:32 am)30.18 "Hg (Jan 9, 6:32 am)
Low50 °F (Jan 12, 7:30 am)18% (Jan 15, 2:30 pm)29.80 "Hg (Jan 7, 3:30 pm)
Average70 °F56%30.00 "Hg
* Reported Jan 7 1:30 am — Jan 22 2:00 am, Amravati, Weather by CustomWeather, © 2017

Note: Actual official high and low records may vary slightly from our data, if they occured in-between our weather recording intervals... More about our weather records

Advertising

Amravati Weather History for the Previous 24 Hours

Scroll right to see more
 ConditionsComfort  
Time TempWeatherWind HumidityBarometerVisibility
2:00 am
Sun, Jan 22
68 °FHaze.3 mph60%30.09 "Hg1 mi
1:30 am68 °FHaze.3 mph60%30.09 "Hg1 mi
1:00 am66 °FHaze.No wind64%30.12 "Hg1 mi
12:00 am68 °FHaze.No wind60%30.12 "Hg1 mi
11:30 pm
Sat, Jan 21
70 °FHaze.No wind57%30.12 "Hg1 mi
11:00 pm70 °FHaze.No wind57%30.12 "Hg1 mi
10:30 pm72 °FHaze.No wind53%30.12 "Hg1 mi
10:00 pm72 °FHaze.No wind57%30.12 "Hg1 mi
9:30 pm72 °FHaze.No wind53%30.12 "Hg1 mi
9:00 pm72 °FHaze.No wind53%30.12 "Hg1 mi
8:30 pm73 °FHaze.No wind50%30.09 "Hg1 mi
8:00 pm73 °FHaze.No wind50%30.09 "Hg1 mi
7:30 pm75 °FHaze.No wind47%30.09 "Hg1 mi
7:00 pm79 °FHaze.No wind42%30.07 "Hg1 mi
6:30 pm79 °FHaze.No wind42%30.07 "Hg1 mi
6:00 pm81 °FHaze.2 mph39%30.04 "Hg1 mi
5:30 pm82 °FHaze.3 mph37%30.04 "Hg1 mi
5:00 pm84 °FHaze.2 mph33%30.01 "Hg1 mi
3:30 pm86 °FHaze.5 mph31%30.04 "Hg1 mi
3:00 pm88 °FHaze.5 mph31%30.04 "Hg1 mi
2:30 pm88 °FHaze.3 mph31%30.04 "Hg1 mi
2:00 pm86 °FHaze.6 mph33%30.04 "Hg1 mi
1:30 pm86 °FHaze.6 mph35%30.07 "Hg1 mi
1:00 pm86 °FHaze.6 mph35%30.09 "Hg1 mi
12:30 pm84 °FHaze.6 mph35%30.12 "Hg1 mi
12:00 pm82 °FHaze.6 mph40%30.12 "Hg1 mi
11:30 am82 °FHaze.5 mph40%30.15 "Hg1 mi
10:30 am79 °FHaze.5 mph45%30.15 "Hg1 mi
10:00 am77 °FHaze.5 mph47%30.18 "Hg1 mi
9:30 am75 °FHaze.5 mph50%30.15 "Hg1 mi
9:00 am72 °FHaze.2 mph57%30.15 "Hg1 mi
8:00 am66 °FHaze.No wind68%30.12 "Hg1 mi
7:30 am63 °FHaze.No wind68%30.12 "Hg1 mi
7:00 am59 °FHaze.No wind82%30.09 "Hg1 mi
5:30 am61 °FHaze.No wind83%30.07 "Hg2 mi
4:00 am61 °FHaze.No wind83%30.07 "Hg2 mi
3:00 am63 °FHaze.No wind83%30.07 "Hg2 mi
Weather by CustomWeather, © 2017

See weather overviewHow to use our weather pages